User: anonymous   Login
Location: Dyersburg
(36.0438°N, 89.3789°W)
Time: 15:58:38
(UTC+00:00)
Language:

Vanguard 2 Rocket - Orbit

View from above orbital plane
View from above orbital plane
View from above satellite
View from above satellite

Ground track
Ground track

The orbit data is extracted from the following two-line orbital elements,

1    12U 59001B   20050.17395203 -.00000109  00000-0 -75679-4 0  9995
2    12  32.9021  48.2495 1666774 168.8655 195.4068 11.44306806508896
Epoch (UTC): 19 February 2020 04:10:29
Eccentricity: 0.1666774
inclination: 32.9021°
perigee height: 554 km
apogee height: 3327 km
right ascension of ascending node: 48.2495°
argument of perigee: 168.8655°
revolutions per day: 11.44306806
mean anomaly at epoch: 195.4068°
orbit number at epoch: 50889

The dashed part of the orbit path shows where the satellite is in the earth's shadow,  

DLR